This is the latest recevied weather packets stored in our database for station/object S51UL-6. If no packets are shown the sender has not sent any weather packets the latest 10 day(s).
| Time | Temp. | Humidity | Pressure | Rain* | Wind** | Luminosity | Snow |
|---|---|---|---|---|---|---|---|
| 1787733796 | 26.67° C | 66% | 1019.3 hPa | 0 mm | - | - | - |
| 1787733494 | 27.22° C | 65% | 1019.1 hPa | 0 mm | - | - | - |
| 1787732595 | 27.78° C | 67% | 1019.2 hPa | 0 mm | - | - | - |
| 1787732295 | 27.78° C | 68% | 1019.2 hPa | 0 mm | - | - | - |
| 1787731995 | 27.78° C | 70% | 1019.3 hPa | 0 mm | - | - | - |
| 1787731395 | 26.67° C | 79% | 1019 hPa | 0 mm | - | - | - |
| 1787731095 | 26.11° C | 82% | 1019.1 hPa | 0 mm | - | - | - |
| 1787730795 | 25° C | 86% | 1019.1 hPa | 0 mm | - | - | - |
| 1787730195 | 22.78° C | 88% | 1019 hPa | 0 mm | - | - | - |
| 1787729595 | 21.11° C | 92% | 1018.9 hPa | 0 mm | - | - | - |
| 1787728996 | 20° C | 92% | 1018.9 hPa | 0 mm | - | - | - |
| 1787728695 | 19.44° C | 92% | 1018.9 hPa | 0 mm | - | - | - |
| 1787728398 | 18.89° C | 92% | 1018.8 hPa | 0 mm | - | - | - |
| 1787728095 | 18.33° C | 92% | 1018.7 hPa | 0 mm | - | - | - |
| 1787727795 | 18.33° C | 92% | 1018.7 hPa | 0 mm | - | - | - |
| 1787727496 | 17.78° C | 92% | 1018.8 hPa | 0 mm | - | - | - |
| 1787726896 | 17.78° C | 92% | 1018.8 hPa | 0 mm | - | - | - |
| 1787726596 | 17.78° C | 92% | 1018.8 hPa | 0 mm | - | - | - |
| 1787726296 | 17.22° C | 92% | 1018.8 hPa | 0 mm | - | - | - |
| 1787725396 | 16.67° C | 92% | 1018.6 hPa | 0 mm | - | - | - |
| 1787724196 | 16.11° C | 92% | 1018.7 hPa | 0 mm | - | - | - |
| 1787723596 | 15.56° C | 92% | 1018.6 hPa | 0 mm | - | - | - |
| 1787722997 | 15.56° C | 92% | 1018.5 hPa | 0 mm | - | - | - |
| 1787722605 | 15° C | 92% | 1018.6 hPa | 0 mm | - | - | - |
| 1787722397 | 15° C | 92% | 1018.6 hPa | 0 mm | - | - | - |
* Rain latest hour (hover to see other rain measurements)
** Current wind speed in m/s (hover to see current wind gust speed)